Total_Precipitation_Accumulation
0.38 0.33 0.38 0.45 0.47 0.57 0.72 0.90 1.15 1.04 0.82 0.69 0.66 0.63 0.66 0.71 0.65 0.62 0.60 0.62 0.63 0.61 0.64 0.67 0.72 0.81 0.89 1.00 1.20 1.33 1.43 1.43 1.36 1.32 1.28 1.25 1.19 1.11 1.11 1.04 1.02 1.08 1.23 1.39
0.24 0.23 0.29 0.40 0.50 0.64 0.72 0.78 0.79 0.70 0.66 0.51 0.48 0.44 0.44 0.51 0.52 0.54 0.49 0.43 0.44 0.49 0.52 0.57 0.61 0.70 0.73 0.84 1.02 1.14 1.21 1.26 1.34 1.32 1.17 1.09 1.05 1.04 1.01 0.96 0.94 0.95 1.04 1.18
0.27 0.22 0.33 0.56 0.62 0.69 0.69 0.64 0.55 0.53 0.47 0.35 0.32 0.29 0.29 0.35 0.40 0.48 0.47 0.39 0.37 0.38 0.43 0.49 0.58 0.62 0.67 0.79 0.93 1.00 1.07 1.11 1.18 1.19 1.06 0.99 0.90 0.86 0.88 0.87 0.91 0.91 0.99 1.13
0.36 0.32 0.59 0.78 0.60 0.54 0.60 0.49 0.34 0.32 0.31 0.29 0.24 0.21 0.20 0.21 0.23 0.27 0.31 0.31 0.35 0.33 0.33 0.37 0.45 0.56 0.71 0.76 0.79 0.82 0.91 0.95 0.96 0.97 0.94 0.88 0.78 0.76 0.79 0.85 0.91 0.94 1.01 1.10
0.52 0.51 0.64 0.69 0.47 0.43 0.51 0.50 0.29 0.23 0.22 0.19 0.17 0.16 0.14 0.14 0.15 0.17 0.19 0.23 0.26 0.26 0.26 0.27 0.30 0.34 0.40 0.48 0.54 0.57 0.69 0.77 0.81 0.83 0.82 0.78 0.74 0.83 0.87 0.86 0.89 0.92 0.92 0.95
0.59 0.69 0.78 0.54 0.24 0.22 0.38 0.59 0.28 0.18 0.16 0.14 0.15 0.18 0.16 0.15 0.16 0.15 0.13 0.14 0.17 0.20 0.20 0.19 0.20 0.22 0.26 0.33 0.39 0.43 0.50 0.58 0.66 0.73 0.76 0.81 0.95 1.06 1.09 1.04 0.94 0.87 0.84 0.83
0.64 0.85 0.80 0.46 0.22 0.24 0.46 0.61 0.32 0.18 0.16 0.17 0.18 0.17 0.15 0.16 0.16 0.16 0.13 0.12 0.15 0.17 0.17 0.18 0.19 0.19 0.22 0.28 0.30 0.35 0.35 0.42 0.54 0.70 0.79 0.91 1.07 1.11 1.09 1.04 0.93 0.82 0.79 0.79
0.80 1.03 1.04 0.52 0.31 0.39 0.38 0.27 0.21 0.15 0.14 0.15 0.15 0.15 0.16 0.17 0.15 0.16 0.16 0.15 0.15 0.15 0.14 0.17 0.20 0.19 0.22 0.30 0.31 0.38 0.41 0.42 0.48 0.60 0.75 0.92 1.07 1.07 1.08 1.07 0.98 0.87 0.84 0.82
0.90 0.90 0.68 0.42 0.31 0.26 0.21 0.22 0.15 0.14 0.15 0.16 0.15 0.16 0.16 0.18 0.17 0.16 0.18 0.19 0.17 0.15 0.15 0.16 0.18 0.21 0.23 0.27 0.32 0.35 0.40 0.37 0.39 0.48 0.62 0.80 0.90 0.93 0.97 1.00 0.97 0.92 0.87 0.83
0.49 0.35 0.26 0.23 0.21 0.16 0.12 0.13 0.11 0.10 0.12 0.17 0.21 0.21 0.17 0.17 0.19 0.21 0.20 0.19 0.18 0.17 0.17 0.16 0.18 0.21 0.26 0.31 0.33 0.33 0.35 0.37 0.37 0.38 0.41 0.50 0.59 0.65 0.74 0.80 0.81 0.82 0.83 0.83
0.36 0.23 0.17 0.17 0.17 0.14 0.11 0.11 0.10 0.10 0.10 0.12 0.18 0.19 0.15 0.17 0.18 0.21 0.22 0.23 0.20 0.20 0.21 0.20 0.21 0.22 0.26 0.30 0.34 0.35 0.37 0.40 0.41 0.42 0.44 0.45 0.47 0.50 0.56 0.59 0.71 0.79 0.79 0.82
0.33 0.23 0.18 0.15 0.15 0.15 0.13 0.11 0.11 0.11 0.13 0.15 0.18 0.19 0.20 0.19 0.19 0.18 0.21 0.24 0.24 0.25 0.26 0.25 0.25 0.25 0.26 0.28 0.31 0.33 0.35 0.36 0.35 0.37 0.39 0.40 0.43 0.47 0.52 0.52 0.60 0.63 0.65 0.66
0.17 0.17 0.16 0.14 0.15 0.15 0.13 0.11 0.11 0.10 0.11 0.13 0.16 0.19 0.18 0.18 0.18 0.21 0.25 0.24 0.25 0.26 0.26 0.26 0.26 0.27 0.30 0.29 0.31 0.35 0.35 0.34 0.33 0.32 0.36 0.39 0.41 0.44 0.49 0.49 0.46 0.45 0.49 0.53
0.10 0.14 0.18 0.17 0.15 0.14 0.12 0.10 0.10 0.10 0.10 0.12 0.14 0.17 0.17 0.17 0.17 0.19 0.21 0.23 0.25 0.25 0.24 0.25 0.25 0.26 0.29 0.32 0.35 0.37 0.38 0.40 0.40 0.39 0.40 0.39 0.42 0.46 0.48 0.50 0.46 0.39 0.40 0.44
0.10 0.11 0.14 0.14 0.12 0.11 0.10 0.10 0.10 0.10 0.10 0.13 0.15 0.16 0.18 0.20 0.21 0.23 0.23 0.22 0.20 0.20 0.22 0.25 0.27 0.26 0.26 0.29 0.33 0.35 0.37 0.37 0.39 0.43 0.42 0.42 0.45 0.49 0.48 0.46 0.43 0.39 0.37 0.39
0.12 0.12 0.13 0.14 0.12 0.10 0.10 0.10 0.11 0.12 0.12 0.14 0.16 0.14 0.14 0.17 0.21 0.25 0.28 0.27 0.24 0.22 0.24 0.28 0.27 0.26 0.28 0.31 0.33 0.34 0.35 0.41 0.42 0.43 0.46 0.48 0.47 0.46 0.45 0.45 0.44 0.41 0.40 0.40
0.16 0.16 0.15 0.15 0.12 0.10 0.10 0.12 0.13 0.14 0.14 0.15 0.17 0.16 0.13 0.13 0.15 0.20 0.23 0.26 0.26 0.26 0.25 0.26 0.28 0.30 0.31 0.33 0.36 0.38 0.39 0.40 0.43 0.41 0.41 0.44 0.45 0.45 0.45 0.44 0.43 0.39 0.38 0.40
0.18 0.16 0.14 0.13 0.12 0.11 0.12 0.14 0.15 0.14 0.13 0.16 0.19 0.18 0.16 0.16 0.16 0.18 0.21 0.25 0.26 0.25 0.23 0.23 0.28 0.31 0.33 0.34 0.36 0.40 0.43 0.41 0.37 0.37 0.39 0.41 0.44 0.45 0.45 0.48 0.47 0.44 0.41 0.41
0.16 0.15 0.12 0.12 0.13 0.15 0.16 0.15 0.15 0.14 0.14 0.15 0.17 0.20 0.21 0.21 0.20 0.20 0.22 0.28 0.30 0.27 0.22 0.20 0.26 0.27 0.29 0.32 0.35 0.35 0.39 0.40 0.40 0.40 0.40 0.44 0.46 0.46 0.46 0.46 0.49 0.48 0.48 0.47
0.20 0.17 0.16 0.16 0.17 0.18 0.17 0.16 0.15 0.14 0.14 0.15 0.18 0.20 0.22 0.23 0.21 0.21 0.24 0.31 0.33 0.30 0.24 0.24 0.23 0.23 0.26 0.29 0.37 0.34 0.35 0.34 0.37 0.43 0.46 0.49 0.50 0.50 0.50 0.48 0.50 0.50 0.48 0.49
0.26 0.25 0.22 0.21 0.20 0.18 0.17 0.17 0.17 0.17 0.17 0.17 0.19 0.20 0.22 0.22 0.22 0.23 0.27 0.32 0.29 0.24 0.24 0.28 0.25 0.25 0.28 0.36 0.42 0.38 0.37 0.35 0.38 0.42 0.44 0.46 0.49 0.53 0.60 0.59 0.56 0.52 0.50 0.48
0.27 0.27 0.25 0.22 0.20 0.20 0.19 0.17 0.17 0.18 0.18 0.19 0.19 0.19 0.22 0.25 0.24 0.23 0.24 0.28 0.28 0.31 0.29 0.27 0.26 0.32 0.38 0.40 0.37 0.39 0.40 0.39 0.39 0.41 0.43 0.43 0.46 0.52 0.58 0.62 0.61 0.57 0.56 0.56
0.24 0.23 0.24 0.23 0.23 0.21 0.19 0.19 0.20 0.21 0.22 0.23 0.24 0.26 0.32 0.35 0.34 0.34 0.33 0.29 0.29 0.33 0.30 0.28 0.34 0.43 0.46 0.38 0.36 0.38 0.41 0.44 0.47 0.48 0.50 0.52 0.52 0.55 0.59 0.61 0.66 0.64 0.62 0.63
0.26 0.24 0.23 0.24 0.23 0.22 0.23 0.24 0.24 0.24 0.27 0.30 0.31 0.34 0.41 0.45 0.44 0.41 0.40 0.40 0.39 0.37 0.32 0.35 0.40 0.44 0.45 0.39 0.41 0.43 0.46 0.51 0.55 0.57 0.60 0.62 0.60 0.62 0.65 0.66 0.69 0.70 0.70 0.70
0.33 0.30 0.30 0.33 0.34 0.33 0.33 0.31 0.30 0.28 0.29 0.33 0.34 0.33 0.38 0.42 0.44 0.45 0.45 0.45 0.44 0.43 0.41 0.45 0.48 0.48 0.43 0.42 0.46 0.48 0.51 0.55 0.61 0.63 0.62 0.64 0.64 0.64 0.65 0.68 0.69 0.71 0.72 0.73
0.31 0.30 0.30 0.32 0.35 0.35 0.35 0.35 0.37 0.37 0.37 0.39 0.39 0.38 0.39 0.39 0.40 0.42 0.46 0.48 0.48 0.50 0.47 0.44 0.42 0.43 0.44 0.47 0.49 0.51 0.52 0.54 0.55 0.55 0.57 0.62 0.65 0.66 0.68 0.71 0.71 0.74 0.77 0.78
0.30 0.28 0.27 0.30 0.34 0.34 0.34 0.38 0.43 0.47 0.48 0.50 0.53 0.51 0.47 0.45 0.45 0.46 0.47 0.48 0.53 0.54 0.53 0.52 0.51 0.49 0.50 0.53 0.55 0.56 0.57 0.57 0.55 0.55 0.58 0.61 0.66 0.72 0.75 0.76 0.78 0.81 0.84 0.86